#timestamp,LO_Frequency,Hit,StdDev 
1681009215.4,286046999.0,N
1681009235.3,286046998.4,N
1681009255.1,286046998.8,N
1681009256.0,286046998.8,N
1681009275.8,286046999.2,N
1681009295.7,286046997.7,N
1681009315.5,286046996.7,Y
1681009335.4,286046998.4,P
1681009355.2,286046999.5,P
1681009375.0,286046997.0,P
1681009375.9,286046997.0,Y
1681009395.8,286046999.6,P
1681009415.6,286046996.6,P
1681009435.5,286046996.8,N
1681009455.3,286046999.1,N
1681009475.1,286046999.6,N
1681009495.9,286046996.9,N
1681009515.7,286046998.0,N
1681009535.6,286046997.7,N
1681009555.4,286046998.0,N
1681009575.2,286046996.0,Y
1681009595.1,286046996.9,P
1681009596.0,286046996.9,P
1681009615.8,286046996.9,P
1681009635.7,286046999.1,N
1681009655.5,286046999.5,N
1681009675.3,286046997.1,N
1681009695.2,286046997.6,N
1681009715.9,286046997.3,N
1681009735.7,286046998.0,N
1681009755.6,286046997.1,Y
1681009775.4,286046998.6,P
1681009795.2,286046999.2,N
1681009815.1,286046998.8,N
1681009816.0,286046998.8,N
1681009835.8,286046998.5,Y
1681009855.7,286047000.4,P
1681009875.5,286047000.3,N
1681009895.3,286047000.4,N
1681009915.2,286046998.5,N
1681009935.0,286047001.0,N
1681009935.9,286047001.0,N
1681009955.8,286046998.1,N
1681009975.6,286046999.3,N
1681009995.4,286046999.2,N
1681010015.3,286046999.1,N
1681010035.1,286046999.1,N
1681010055.8,286046996.9,Y
1681010075.7,286046996.9,P
1681010095.5,286046996.8,N
1681010115.4,286046996.6,N
1681010135.2,286046997.2,N
1681010155.0,286046996.6,Y
1681010155.9,286046996.6,P
1681010175.8,286046998.7,P
1681010195.6,286047000.4,N
1681010215.5,286046998.1,N
1681010235.3,286047000.4,N
1681010255.1,286046999.8,N
1681010275.9,286047001.6,N
1681010295.7,286047002.0,N
1681010315.6,286047002.5,N
1681010335.4,286047000.1,N
1681010355.2,286046999.8,N
1681010375.1,286047001.2,N
1681010376.0,286047001.2,N
1681010395.8,286046999.3,N
1681010415.6,286046998.4,N
1681010435.5,286046998.8,N
1681010455.3,286047001.1,N
1681010475.2,286047000.6,N
1681010495.9,286047000.4,N
1681010515.7,286047000.6,N
1681010535.6,286047001.0,N
1681010555.4,286047000.2,N
1681010575.3,286047000.1,N
1681010595.1,286047000.3,N
1681010596.0,286047000.3,N
1681010615.8,286047000.9,N
1681010635.7,286047001.1,N
1681010655.5,286047001.2,N
1681010675.3,286046999.6,N
1681010695.2,286046999.1,N
1681010715.0,286046997.0,N
1681010715.9,286046997.0,N
1681010735.8,286046997.4,N
1681010755.6,286046996.7,N
1681010775.4,286046996.7,N
1681010795.3,286046997.8,N
1681010815.1,286046996.9,N
1681010835.8,286046999.1,N
1681010855.7,286046999.6,N
1681010875.5,286046998.7,N
1681010895.4,286046998.5,N
1681010915.2,286046999.3,N
1681010935.0,286046999.3,N
1681010935.9,286046999.3,N
1681010955.8,286046998.4,N
1681010975.6,286046998.2,N
1681010995.5,286046999.2,N
1681011015.3,286046996.5,N
1681011035.1,286046997.2,N
1681011055.9,286046996.6,N
1681011075.7,286046996.9,N
1681011095.5,286046998.5,N
1681011115.4,286046998.9,N
1681011135.2,286046999.5,N
1681011155.1,286046999.5,N
1681011156.0,286046999.5,N
1681011175.8,286046996.5,N
1681011195.6,286046996.9,N
1681011215.5,286046997.0,N
1681011235.3,286046999.5,N
1681011255.2,286046998.8,N
1681011275.9,286046999.0,N
1681011295.7,286046997.0,N
1681011315.6,286046996.7,N
1681011335.4,286046996.9,N
1681011355.2,286046997.3,N
1681011375.1,286046997.9,N
1681011376.0,286046997.9,N
1681011395.8,286046998.0,N
1681011415.7,286046997.5,N
1681011435.5,286046994.9,Y
1681011455.4,286046998.8,P
1681011475.2,286046998.2,P
1681011495.0,286047001.1,P
1681011495.9,286047001.1,N
1681011515.8,286047000.4,N
1681011535.6,286046999.9,N
1681011555.5,286047001.1,N
1681011575.3,286047001.1,N
1681011595.1,286047000.4,N
1681011615.9,286047000.0,N
1681011635.7,286047000.9,N
1681011655.5,286047000.9,N
1681011675.4,286047000.7,N
1681011695.2,286046999.4,N
1681011715.1,286046996.6,Y
1681011716.0,286046996.6,P
1681011735.8,286046999.2,N
1681011755.6,286046999.0,N
1681011775.5,286046999.3,N
1681011795.3,286046999.3,N
1681011815.2,286046996.6,Y
1681011835.9,286046998.1,P
1681011855.7,286046998.3,P
1681011875.6,286047000.8,N
1681011895.4,286046998.1,N
1681011915.2,286047001.1,N
1681011935.1,286046998.7,N
1681011936.0,286046998.7,N
1681011955.8,286047001.1,N
1681011975.7,286047001.0,N
1681011995.5,286047000.2,N
1681012015.3,286047000.8,N
1681012035.2,286046998.6,N
1681012055.0,286046997.2,N
1681012055.9,286046997.2,N
1681012075.8,286046997.8,N
1681012095.6,286046996.6,N
1681012115.4,286046996.9,N
1681012135.3,286046999.2,N
1681012155.1,286046999.3,N
1681012175.9,286046998.8,N
1681012195.7,286046999.0,N
1681012215.5,286046999.1,N
1681012235.4,286046999.5,N
1681012255.2,286046999.6,N
1681012275.1,286046999.5,N
1681012276.0,286046999.5,N
1681012295.8,286046999.2,N
1681012315.6,286046999.6,N
1681012335.5,286046999.1,N
1681012355.3,286046997.1,N
1681012375.1,286046998.8,N
1681012425.9,286046999.2,E
1681012435.8,286046998.2,N
1681012455.7,286047001.2,P
1681012475.5,286046998.6,N
1681012495.3,286047001.2,N
1681012515.2,286046999.0,N
1681012535.0,286046999.5,N
1681012535.9,286046999.5,N
1681012555.8,286046998.2,N
1681012575.6,286046998.1,N
1681012595.4,286047000.7,N
1681012615.3,286047001.1,N
1681012635.1,286047000.5,N
1681012655.8,286047001.2,N
1681012675.7,286047000.5,N
1681012695.5,286046998.4,N
1681012715.4,286047001.0,N
1681012735.2,286047001.1,N
1681012755.0,286047000.9,N
1681012755.9,286047000.9,N
1681012775.8,286047000.3,N
1681012795.6,286047001.0,N
